<?xml version='1.0' encoding='UTF-8'?>
<gpx xmlns="http://www.topografix.com/GPX/1/1" creator="www.balnam.be" version="1.1" xmlns:xsi="http://www.w3.org/2001/XMLSchema-instance" xsi:schemaLocation="http://www.topografix.com/GPX/1/1 http://www.topografix.com/GPX/1/1/gpx.xsd">
<trk>
<name>hhstl10</name>
<cmt>r</cmt>
<desc>Thulin Chemin n°10 Ruelle du Clerc</desc>
<link href="https://chemins.be/thulin/chemin/10"/><trkseg>
<trkpt lat="50.428699" lon="3.739929"><time>2026-05-03T01:14:35Z</time></trkpt>
<trkpt lat="50.428860" lon="3.740669"><time>2026-05-03T01:24:35Z</time></trkpt>
</trkseg></trk>
<trk>
<name>hhstl10</name>
<cmt>s</cmt>
<desc>Thulin Chemin n°10 Ruelle du Clerc</desc>
<link href="https://chemins.be/thulin/chemin/10"/><trkseg>
<trkpt lat="50.428860" lon="3.740669"><time>2026-05-03T01:24:35Z</time></trkpt>
<trkpt lat="50.429386" lon="3.740508"><time>2026-05-03T01:34:35Z</time></trkpt>
</trkseg>
</trk>
<trk>
<name>hhstl14</name>
<cmt>v</cmt>
<desc>Thulin Chemin n°14 </desc>
<link href="https://chemins.be/thulin/chemin/14"/><trkseg>
<trkpt lat="50.425227" lon="3.726082"><time>2026-05-03T01:14:35Z</time></trkpt>
<trkpt lat="50.422547" lon="3.724365"><time>2026-05-03T01:24:35Z</time></trkpt>
<trkpt lat="50.422137" lon="3.722606"><time>2026-05-03T01:34:35Z</time></trkpt>
<trkpt lat="50.419075" lon="3.720031"><time>2026-05-03T01:44:35Z</time></trkpt>
</trkseg>
</trk>
<trk>
<name>hhstl15</name>
<cmt>q</cmt>
<desc>Thulin Chemin n°15 </desc>
<link href="https://chemins.be/thulin/chemin/15"/><trkseg>
<trkpt lat="50.416116" lon="3.729562"><time>2026-05-03T01:14:35Z</time></trkpt>
<trkpt lat="50.418242" lon="3.722847"><time>2026-05-03T01:24:35Z</time></trkpt>
<trkpt lat="50.418416" lon="3.722297"><time>2026-05-03T01:34:35Z</time></trkpt>
<trkpt lat="50.419129" lon="3.720047"><time>2026-05-03T01:44:35Z</time></trkpt>
</trkseg>
</trk>
<trk>
<name>hhstl16</name>
<cmt>v</cmt>
<desc>Thulin Chemin n°16 </desc>
<link href="https://chemins.be/thulin/chemin/16"/><trkseg>
<trkpt lat="50.426529" lon="3.731714"><time>2026-05-03T01:14:35Z</time></trkpt>
<trkpt lat="50.425040" lon="3.732656"><time>2026-05-03T01:24:35Z</time></trkpt>
</trkseg></trk>
<trk>
<name>hhstl16</name>
<cmt>q</cmt>
<desc>Thulin Chemin n°16 </desc>
<link href="https://chemins.be/thulin/chemin/16"/><trkseg>
<trkpt lat="50.425040" lon="3.732656"><time>2026-05-03T01:24:35Z</time></trkpt>
<trkpt lat="50.423720" lon="3.733571"><time>2026-05-03T01:34:35Z</time></trkpt>
</trkseg>
</trk>
<trk>
<name>hhstl17</name>
<cmt>q</cmt>
<desc>Thulin Chemin n°17 </desc>
<link href="https://chemins.be/thulin/chemin/17"/><trkseg>
<trkpt lat="50.419847" lon="3.735913"><time>2026-05-03T01:14:35Z</time></trkpt>
<trkpt lat="50.418911" lon="3.728150"><time>2026-05-03T01:24:35Z</time></trkpt>
<trkpt lat="50.417963" lon="3.724717"><time>2026-05-03T01:34:35Z</time></trkpt>
<trkpt lat="50.417673" lon="3.724556"><time>2026-05-03T01:44:35Z</time></trkpt>
</trkseg>
</trk>
<trk>
<name>hhstl19</name>
<cmt>r</cmt>
<desc>Thulin Chemin n°19 Rue du Quéniau</desc>
<link href="https://chemins.be/thulin/chemin/19"/><trkseg>
<trkpt lat="50.426018" lon="3.744941"><time>2026-05-03T01:14:35Z</time></trkpt>
<trkpt lat="50.424942" lon="3.749467"><time>2026-05-03T01:24:35Z</time></trkpt>
</trkseg></trk>
<trk>
<name>hhstl19</name>
<cmt>q</cmt>
<desc>Thulin Chemin n°19 Rue du Quéniau</desc>
<link href="https://chemins.be/thulin/chemin/19"/><trkseg>
<trkpt lat="50.424942" lon="3.749467"><time>2026-05-03T01:24:35Z</time></trkpt>
<trkpt lat="50.424653" lon="3.750680"><time>2026-05-03T01:34:35Z</time></trkpt>
</trkseg></trk>
<trk>
<name>hhstl19</name>
<cmt>s</cmt>
<desc>Thulin Chemin n°19 Rue du Quéniau</desc>
<link href="https://chemins.be/thulin/chemin/19"/><trkseg>
<trkpt lat="50.424653" lon="3.750680"><time>2026-05-03T01:34:35Z</time></trkpt>
<trkpt lat="50.424466" lon="3.751466"><time>2026-05-03T01:44:35Z</time></trkpt>
</trkseg></trk>
<trk>
<name>hhstl19</name>
<cmt>v</cmt>
<desc>Thulin Chemin n°19 Rue du Quéniau</desc>
<link href="https://chemins.be/thulin/chemin/19"/><trkseg>
<trkpt lat="50.424466" lon="3.751466"><time>2026-05-03T01:44:35Z</time></trkpt>
<trkpt lat="50.421832" lon="3.756932"><time>2026-05-03T01:54:35Z</time></trkpt>
<trkpt lat="50.421349" lon="3.757347"><time>2026-05-03T02:04:35Z</time></trkpt>
<trkpt lat="50.420791" lon="3.757827"><time>2026-05-03T02:14:35Z</time></trkpt>
<trkpt lat="50.420514" lon="3.758065"><time>2026-05-03T02:24:35Z</time></trkpt>
<trkpt lat="50.420089" lon="3.758709"><time>2026-05-03T02:34:35Z</time></trkpt>
</trkseg>
</trk>
<trk>
<name>hhstl20</name>
<cmt>d</cmt>
<desc>Thulin Sentier n°20 </desc>
<link href="https://chemins.be/thulin/sentier/20"/><trkseg>
<trkpt lat="50.422619" lon="3.759820"><time>2026-05-03T01:14:35Z</time></trkpt>
<trkpt lat="50.428620" lon="3.762593"><time>2026-05-03T01:24:35Z</time></trkpt>
</trkseg>
</trk>
<trk>
<name>hhstl21</name>
<cmt>q</cmt>
<desc>Thulin Sentier n°21 </desc>
<link href="https://chemins.be/thulin/sentier/21"/><trkseg>
<trkpt lat="50.432244" lon="3.745938"><time>2026-05-03T01:14:35Z</time></trkpt>
<trkpt lat="50.432444" lon="3.747728"><time>2026-05-03T01:24:35Z</time></trkpt>
<trkpt lat="50.432374" lon="3.747808"><time>2026-05-03T01:34:35Z</time></trkpt>
<trkpt lat="50.432434" lon="3.749136"><time>2026-05-03T01:44:35Z</time></trkpt>
</trkseg>
</trk>
<trk>
<name>hhstl22</name>
<cmt>v</cmt>
<desc>Thulin Sentier n°22 Rue Léon Mahieu</desc>
<link href="https://chemins.be/thulin/sentier/22"/><trkseg>
<trkpt lat="50.429977" lon="3.741186"><time>2026-05-03T01:14:35Z</time></trkpt>
<trkpt lat="50.429376" lon="3.741175"><time>2026-05-03T01:24:35Z</time></trkpt>
</trkseg></trk>
<trk>
<name>hhstl22</name>
<cmt>b</cmt>
<desc>Thulin Sentier n°22 Rue Léon Mahieu</desc>
<link href="https://chemins.be/thulin/sentier/22"/><trkseg>
<trkpt lat="50.429376" lon="3.741175"><time>2026-05-03T01:24:35Z</time></trkpt>
<trkpt lat="50.428900" lon="3.741832"><time>2026-05-03T01:34:35Z</time></trkpt>
</trkseg></trk>
<trk>
<name>hhstl22</name>
<cmt>v</cmt>
<desc>Thulin Sentier n°22 Rue Léon Mahieu</desc>
<link href="https://chemins.be/thulin/sentier/22"/><trkseg>
<trkpt lat="50.428900" lon="3.741832"><time>2026-05-03T01:34:35Z</time></trkpt>
<trkpt lat="50.428729" lon="3.742109"><time>2026-05-03T01:44:35Z</time></trkpt>
<trkpt lat="50.428560" lon="3.742397"><time>2026-05-03T01:54:35Z</time></trkpt>
</trkseg></trk>
<trk>
<name>hhstl22</name>
<cmt>r</cmt>
<desc>Thulin Sentier n°22 Rue Léon Mahieu</desc>
<link href="https://chemins.be/thulin/sentier/22"/><trkseg>
<trkpt lat="50.428560" lon="3.742397"><time>2026-05-03T01:54:35Z</time></trkpt>
<trkpt lat="50.428425" lon="3.742482"><time>2026-05-03T02:04:35Z</time></trkpt>
<trkpt lat="50.428359" lon="3.742270"><time>2026-05-03T02:14:35Z</time></trkpt>
</trkseg></trk>
<trk>
<name>hhstl22</name>
<cmt>v</cmt>
<desc>Thulin Sentier n°22 Rue Léon Mahieu</desc>
<link href="https://chemins.be/thulin/sentier/22"/><trkseg>
<trkpt lat="50.428359" lon="3.742270"><time>2026-05-03T02:14:35Z</time></trkpt>
<trkpt lat="50.427254" lon="3.743028"><time>2026-05-03T02:24:35Z</time></trkpt>
<trkpt lat="50.426822" lon="3.744063"><time>2026-05-03T02:34:35Z</time></trkpt>
<trkpt lat="50.426594" lon="3.744608"><time>2026-05-03T02:44:35Z</time></trkpt>
<trkpt lat="50.425984" lon="3.744938"><time>2026-05-03T02:54:35Z</time></trkpt>
</trkseg>
</trk>
<trk>
<name>hhstl23</name>
<cmt>q</cmt>
<desc>Thulin Sentier n°23 </desc>
<link href="https://chemins.be/thulin/sentier/23"/><trkseg>
<trkpt lat="50.429991" lon="3.741223"><time>2026-05-03T01:14:35Z</time></trkpt>
<trkpt lat="50.431317" lon="3.743246"><time>2026-05-03T01:24:35Z</time></trkpt>
<trkpt lat="50.431286" lon="3.744045"><time>2026-05-03T01:34:35Z</time></trkpt>
</trkseg>
</trk>
<trk>
<name>hhstl24</name>
<cmt>q</cmt>
<desc>Thulin Sentier n°24 </desc>
<link href="https://chemins.be/thulin/sentier/24"/><trkseg>
<trkpt lat="50.433941" lon="3.747996"><time>2026-05-03T01:14:35Z</time></trkpt>
<trkpt lat="50.433415" lon="3.749841"><time>2026-05-03T01:24:35Z</time></trkpt>
<trkpt lat="50.433456" lon="3.750839"><time>2026-05-03T01:34:35Z</time></trkpt>
<trkpt lat="50.432800" lon="3.751891"><time>2026-05-03T01:44:35Z</time></trkpt>
</trkseg>
</trk>
<trk>
<name>hhstl25</name>
<cmt>v</cmt>
<desc>Thulin Sentier n°25 Ruelle du Clerc</desc>
<link href="https://chemins.be/thulin/sentier/25"/><trkseg>
<trkpt lat="50.429453" lon="3.739602"><time>2026-05-03T01:14:35Z</time></trkpt>
<trkpt lat="50.429386" lon="3.740272"><time>2026-05-03T01:24:35Z</time></trkpt>
<trkpt lat="50.429382" lon="3.741151"><time>2026-05-03T01:34:35Z</time></trkpt>
</trkseg>
</trk>
<trk>
<name>hhstl26</name>
<cmt>v</cmt>
<desc>Thulin Sentier n°26 </desc>
<link href="https://chemins.be/thulin/sentier/26"/><trkseg>
<trkpt lat="50.429397" lon="3.740531"><time>2026-05-03T01:14:35Z</time></trkpt>
<trkpt lat="50.429983" lon="3.740583"><time>2026-05-03T01:24:35Z</time></trkpt>
</trkseg>
</trk>
<trk>
<name>hhstl27</name>
<cmt>q</cmt>
<desc>Thulin Sentier n°27 Rue de Belle-Vue</desc>
<link href="https://chemins.be/thulin/sentier/27"/><trkseg>
<trkpt lat="50.422557" lon="3.745049"><time>2026-05-03T01:14:35Z</time></trkpt>
<trkpt lat="50.422044" lon="3.746249"><time>2026-05-03T01:24:35Z</time></trkpt>
</trkseg></trk>
<trk>
<name>hhstl27</name>
<cmt>d</cmt>
<desc>Thulin Sentier n°27 Rue de Belle-Vue</desc>
<link href="https://chemins.be/thulin/sentier/27"/><trkseg>
<trkpt lat="50.422044" lon="3.746249"><time>2026-05-03T01:24:35Z</time></trkpt>
<trkpt lat="50.421684" lon="3.747089"><time>2026-05-03T01:34:35Z</time></trkpt>
<trkpt lat="50.420345" lon="3.750218"><time>2026-05-03T01:44:35Z</time></trkpt>
</trkseg></trk>
<trk>
<name>hhstl27</name>
<cmt>v</cmt>
<desc>Thulin Sentier n°27 Rue de Belle-Vue</desc>
<link href="https://chemins.be/thulin/sentier/27"/><trkseg>
<trkpt lat="50.420345" lon="3.750218"><time>2026-05-03T01:44:35Z</time></trkpt>
<trkpt lat="50.419154" lon="3.754166"><time>2026-05-03T01:54:35Z</time></trkpt>
</trkseg>
</trk>
<trk>
<name>hhstl28</name>
<cmt>v</cmt>
<desc>Thulin Sentier n°28 </desc>
<link href="https://chemins.be/thulin/sentier/28"/><trkseg>
<trkpt lat="50.431554" lon="3.737205"><time>2026-05-03T01:14:35Z</time></trkpt>
<trkpt lat="50.431464" lon="3.737263"><time>2026-05-03T01:24:35Z</time></trkpt>
<trkpt lat="50.431347" lon="3.737321"><time>2026-05-03T01:34:35Z</time></trkpt>
<trkpt lat="50.431312" lon="3.737335"><time>2026-05-03T01:44:35Z</time></trkpt>
<trkpt lat="50.431114" lon="3.737352"><time>2026-05-03T01:54:35Z</time></trkpt>
<trkpt lat="50.430871" lon="3.737383"><time>2026-05-03T02:04:35Z</time></trkpt>
<trkpt lat="50.430827" lon="3.737468"><time>2026-05-03T02:14:35Z</time></trkpt>
<trkpt lat="50.430774" lon="3.737610"><time>2026-05-03T02:24:35Z</time></trkpt>
<trkpt lat="50.430729" lon="3.737695"><time>2026-05-03T02:34:35Z</time></trkpt>
<trkpt lat="50.430478" lon="3.737825"><time>2026-05-03T02:44:35Z</time></trkpt>
<trkpt lat="50.430299" lon="3.737883"><time>2026-05-03T02:54:35Z</time></trkpt>
<trkpt lat="50.430137" lon="3.737942"><time>2026-05-03T03:04:35Z</time></trkpt>
<trkpt lat="50.430029" lon="3.737957"><time>2026-05-03T03:14:35Z</time></trkpt>
<trkpt lat="50.429921" lon="3.737945"><time>2026-05-03T03:24:35Z</time></trkpt>
<trkpt lat="50.429867" lon="3.737945"><time>2026-05-03T03:34:35Z</time></trkpt>
</trkseg>
</trk>
<trk>
<name>hhstl29</name>
<cmt>v</cmt>
<desc>Thulin Sentier n°29 </desc>
<link href="https://chemins.be/thulin/sentier/29"/><trkseg>
<trkpt lat="50.424704" lon="3.750758"><time>2026-05-03T01:14:35Z</time></trkpt>
<trkpt lat="50.424974" lon="3.751979"><time>2026-05-03T01:24:35Z</time></trkpt>
<trkpt lat="50.429402" lon="3.749353"><time>2026-05-03T01:34:35Z</time></trkpt>
<trkpt lat="50.431618" lon="3.748039"><time>2026-05-03T01:44:35Z</time></trkpt>
</trkseg></trk>
<trk>
<name>hhstl29</name>
<cmt>q</cmt>
<desc>Thulin Sentier n°29 </desc>
<link href="https://chemins.be/thulin/sentier/29"/><trkseg>
<trkpt lat="50.431618" lon="3.748039"><time>2026-05-03T01:44:35Z</time></trkpt>
<trkpt lat="50.432363" lon="3.747781"><time>2026-05-03T01:54:35Z</time></trkpt>
<trkpt lat="50.433613" lon="3.747631"><time>2026-05-03T02:04:35Z</time></trkpt>
<trkpt lat="50.434181" lon="3.748082"><time>2026-05-03T02:14:35Z</time></trkpt>
<trkpt lat="50.434878" lon="3.748532"><time>2026-05-03T02:24:35Z</time></trkpt>
</trkseg>
</trk>
<trk>
<name>hhstl3</name>
<cmt>q</cmt>
<desc>Thulin Chemin n°3 </desc>
<link href="https://chemins.be/thulin/chemin/3"/><trkseg>
<trkpt lat="50.424978" lon="3.749551"><time>2026-05-03T01:14:35Z</time></trkpt>
<trkpt lat="50.425411" lon="3.751783"><time>2026-05-03T01:24:35Z</time></trkpt>
<trkpt lat="50.425839" lon="3.753621"><time>2026-05-03T01:34:35Z</time></trkpt>
<trkpt lat="50.426281" lon="3.757040"><time>2026-05-03T01:44:35Z</time></trkpt>
<trkpt lat="50.426267" lon="3.757891"><time>2026-05-03T01:54:35Z</time></trkpt>
</trkseg>
</trk>
<trk>
<name>hhstl30</name>
<cmt>v</cmt>
<desc>Thulin Sentier n°30 </desc>
<link href="https://chemins.be/thulin/sentier/30"/><trkseg>
<trkpt lat="50.427951" lon="3.739367"><time>2026-05-03T01:14:35Z</time></trkpt>
<trkpt lat="50.427298" lon="3.739539"><time>2026-05-03T01:24:35Z</time></trkpt>
</trkseg>
</trk>
<trk>
<name>hhstl31</name>
<cmt>q</cmt>
<desc>Thulin Sentier n°31 </desc>
<link href="https://chemins.be/thulin/sentier/31"/><trkseg>
<trkpt lat="50.429964" lon="3.740249"><time>2026-05-03T01:14:35Z</time></trkpt>
<trkpt lat="50.431146" lon="3.740528"><time>2026-05-03T01:24:35Z</time></trkpt>
<trkpt lat="50.432199" lon="3.740185"><time>2026-05-03T01:34:35Z</time></trkpt>
<trkpt lat="50.432780" lon="3.739649"><time>2026-05-03T01:44:35Z</time></trkpt>
</trkseg>
</trk>
<trk>
<name>hhstl32</name>
<cmt>v</cmt>
<desc>Thulin Sentier n°32 </desc>
<link href="https://chemins.be/thulin/sentier/32"/><trkseg>
<trkpt lat="50.429690" lon="3.745850"><time>2026-05-03T01:14:35Z</time></trkpt>
<trkpt lat="50.431932" lon="3.745528"><time>2026-05-03T01:24:35Z</time></trkpt>
</trkseg>
</trk>
<trk>
<name>hhstl34</name>
<cmt>r</cmt>
<desc>Thulin Sentier n°34 </desc>
<link href="https://chemins.be/thulin/sentier/34"/><trkseg>
<trkpt lat="50.425876" lon="3.728462"><time>2026-05-03T01:14:35Z</time></trkpt>
<trkpt lat="50.426584" lon="3.726216"><time>2026-05-03T01:24:35Z</time></trkpt>
</trkseg></trk>
<trk>
<name>hhstl34</name>
<cmt>q</cmt>
<desc>Thulin Sentier n°34 </desc>
<link href="https://chemins.be/thulin/sentier/34"/><trkseg>
<trkpt lat="50.426584" lon="3.726216"><time>2026-05-03T01:24:35Z</time></trkpt>
<trkpt lat="50.427280" lon="3.723026"><time>2026-05-03T01:34:35Z</time></trkpt>
<trkpt lat="50.426988" lon="3.721846"><time>2026-05-03T01:44:35Z</time></trkpt>
</trkseg>
</trk>
<trk>
<name>hhstl35</name>
<cmt>r</cmt>
<desc>Thulin Sentier n°35 </desc>
<link href="https://chemins.be/thulin/sentier/35"/><trkseg>
<trkpt lat="50.429013" lon="3.737009"><time>2026-05-03T01:14:35Z</time></trkpt>
<trkpt lat="50.428995" lon="3.735242"><time>2026-05-03T01:24:35Z</time></trkpt>
</trkseg></trk>
<trk>
<name>hhstl35</name>
<cmt>q</cmt>
<desc>Thulin Sentier n°35 </desc>
<link href="https://chemins.be/thulin/sentier/35"/><trkseg>
<trkpt lat="50.428995" lon="3.735242"><time>2026-05-03T01:24:35Z</time></trkpt>
<trkpt lat="50.429286" lon="3.731516"><time>2026-05-03T01:34:35Z</time></trkpt>
<trkpt lat="50.431551" lon="3.724691"><time>2026-05-03T01:44:35Z</time></trkpt>
<trkpt lat="50.433820" lon="3.718668"><time>2026-05-03T01:54:35Z</time></trkpt>
</trkseg>
</trk>
<trk>
<name>hhstl36</name>
<cmt>v</cmt>
<desc>Thulin Sentier n°36 </desc>
<link href="https://chemins.be/thulin/sentier/36"/><trkseg>
<trkpt lat="50.425039" lon="3.732656"><time>2026-05-03T01:14:35Z</time></trkpt>
<trkpt lat="50.424616" lon="3.731307"><time>2026-05-03T01:24:35Z</time></trkpt>
</trkseg></trk>
<trk>
<name>hhstl36</name>
<cmt>r</cmt>
<desc>Thulin Sentier n°36 </desc>
<link href="https://chemins.be/thulin/sentier/36"/><trkseg>
<trkpt lat="50.424616" lon="3.731307"><time>2026-05-03T01:24:35Z</time></trkpt>
<trkpt lat="50.424830" lon="3.730803"><time>2026-05-03T01:34:35Z</time></trkpt>
</trkseg></trk>
<trk>
<name>hhstl36</name>
<cmt>v</cmt>
<desc>Thulin Sentier n°36 </desc>
<link href="https://chemins.be/thulin/sentier/36"/><trkseg>
<trkpt lat="50.424830" lon="3.730803"><time>2026-05-03T01:34:35Z</time></trkpt>
<trkpt lat="50.424208" lon="3.730921"><time>2026-05-03T01:44:35Z</time></trkpt>
<trkpt lat="50.419472" lon="3.727171"><time>2026-05-03T01:54:35Z</time></trkpt>
</trkseg></trk>
<trk>
<name>hhstl36</name>
<cmt>s</cmt>
<desc>Thulin Sentier n°36 </desc>
<link href="https://chemins.be/thulin/sentier/36"/><trkseg>
<trkpt lat="50.419472" lon="3.727171"><time>2026-05-03T01:54:35Z</time></trkpt>
<trkpt lat="50.418413" lon="3.726398"><time>2026-05-03T02:04:35Z</time></trkpt>
</trkseg>
</trk>
<trk>
<name>hhstl37</name>
<cmt>q</cmt>
<desc>Thulin Sentier n°37 </desc>
<link href="https://chemins.be/thulin/sentier/37"/><trkseg>
<trkpt lat="50.419080" lon="3.735527"><time>2026-05-03T01:14:35Z</time></trkpt>
<trkpt lat="50.417395" lon="3.730946"><time>2026-05-03T01:24:35Z</time></trkpt>
<trkpt lat="50.416131" lon="3.729873"><time>2026-05-03T01:34:35Z</time></trkpt>
</trkseg>
</trk>
<trk>
<name>hhstl38</name>
<cmt>q</cmt>
<desc>Thulin Sentier n°38 </desc>
<link href="https://chemins.be/thulin/sentier/38"/><trkseg>
<trkpt lat="50.417677" lon="3.724515"><time>2026-05-03T01:14:35Z</time></trkpt>
<trkpt lat="50.417273" lon="3.724258"><time>2026-05-03T01:24:35Z</time></trkpt>
<trkpt lat="50.417229" lon="3.723752"><time>2026-05-03T01:34:35Z</time></trkpt>
<trkpt lat="50.415353" lon="3.722215"><time>2026-05-03T01:44:35Z</time></trkpt>
</trkseg>
</trk>
<trk>
<name>hhstl40</name>
<cmt>q</cmt>
<desc>Thulin Sentier n°40 </desc>
<link href="https://chemins.be/thulin/sentier/40"/><trkseg>
<trkpt lat="50.432438" lon="3.749171"><time>2026-05-03T01:14:35Z</time></trkpt>
<trkpt lat="50.433477" lon="3.750780"><time>2026-05-03T01:24:35Z</time></trkpt>
<trkpt lat="50.433832" lon="3.751917"><time>2026-05-03T01:34:35Z</time></trkpt>
<trkpt lat="50.435842" lon="3.753119"><time>2026-05-03T01:44:35Z</time></trkpt>
</trkseg>
</trk>
<trk>
<name>hhstl41</name>
<cmt>v</cmt>
<desc>Thulin Sentier n°41 </desc>
<link href="https://chemins.be/thulin/sentier/41"/><trkseg>
<trkpt lat="50.434997" lon="3.748626"><time>2026-05-03T01:14:35Z</time></trkpt>
<trkpt lat="50.434936" lon="3.749249"><time>2026-05-03T01:24:35Z</time></trkpt>
<trkpt lat="50.435155" lon="3.751228"><time>2026-05-03T01:34:35Z</time></trkpt>
<trkpt lat="50.435935" lon="3.751638"><time>2026-05-03T01:44:35Z</time></trkpt>
<trkpt lat="50.436085" lon="3.752028"><time>2026-05-03T01:54:35Z</time></trkpt>
<trkpt lat="50.435925" lon="3.753098"><time>2026-05-03T02:04:35Z</time></trkpt>
<trkpt lat="50.436795" lon="3.754798"><time>2026-05-03T02:14:35Z</time></trkpt>
<trkpt lat="50.438554" lon="3.754887"><time>2026-05-03T02:24:35Z</time></trkpt>
<trkpt lat="50.443329" lon="3.754933"><time>2026-05-03T02:34:35Z</time></trkpt>
</trkseg></trk>
<trk>
<name>hhstl41</name>
<cmt>q</cmt>
<desc>Thulin Sentier n°41 </desc>
<link href="https://chemins.be/thulin/sentier/41"/><trkseg>
<trkpt lat="50.443329" lon="3.754933"><time>2026-05-03T02:34:35Z</time></trkpt>
<trkpt lat="50.444467" lon="3.753667"><time>2026-05-03T02:44:35Z</time></trkpt>
<trkpt lat="50.444786" lon="3.749977"><time>2026-05-03T02:54:35Z</time></trkpt>
</trkseg>
</trk>
<trk>
<name>hhstl42</name>
<cmt>q</cmt>
<desc>Thulin Sentier n°42 </desc>
<link href="https://chemins.be/thulin/sentier/42"/><trkseg>
<trkpt lat="50.444737" lon="3.751090"><time>2026-05-03T01:14:35Z</time></trkpt>
<trkpt lat="50.445215" lon="3.750725"><time>2026-05-03T01:24:35Z</time></trkpt>
</trkseg>
</trk>
<trk>
<name>hhstl43</name>
<cmt>v</cmt>
<desc>Thulin Sentier n°43 </desc>
<link href="https://chemins.be/thulin/sentier/43"/><trkseg>
<trkpt lat="50.440633" lon="3.731702"><time>2026-05-03T01:14:35Z</time></trkpt>
<trkpt lat="50.439148" lon="3.730171"><time>2026-05-03T01:24:35Z</time></trkpt>
</trkseg>
</trk>
<trk>
<name>hhstl45</name>
<cmt>q</cmt>
<desc>Thulin Sentier n°45 </desc>
<link href="https://chemins.be/thulin/sentier/45"/><trkseg>
<trkpt lat="50.434507" lon="3.745554"><time>2026-05-03T01:14:35Z</time></trkpt>
<trkpt lat="50.435082" lon="3.744803"><time>2026-05-03T01:24:35Z</time></trkpt>
</trkseg>
</trk>
<trk>
<name>hhstl46</name>
<cmt>q</cmt>
<desc>Thulin Sentier n°46 </desc>
<link href="https://chemins.be/thulin/sentier/46"/><trkseg>
<trkpt lat="50.431201" lon="3.740518"><time>2026-05-03T01:14:35Z</time></trkpt>
<trkpt lat="50.431153" lon="3.742481"><time>2026-05-03T01:24:35Z</time></trkpt>
<trkpt lat="50.431331" lon="3.742782"><time>2026-05-03T01:34:35Z</time></trkpt>
<trkpt lat="50.431310" lon="3.743221"><time>2026-05-03T01:44:35Z</time></trkpt>
</trkseg>
</trk>
<trk>
<name>hhstl47</name>
<cmt>q</cmt>
<desc>Thulin Sentier n°47 </desc>
<link href="https://chemins.be/thulin/sentier/47"/><trkseg>
<trkpt lat="50.443488" lon="3.723806"><time>2026-05-03T01:14:35Z</time></trkpt>
<trkpt lat="50.443529" lon="3.724203"><time>2026-05-03T01:24:35Z</time></trkpt>
<trkpt lat="50.443188" lon="3.726599"><time>2026-05-03T01:34:35Z</time></trkpt>
<trkpt lat="50.443372" lon="3.727594"><time>2026-05-03T01:44:35Z</time></trkpt>
<trkpt lat="50.443537" lon="3.729020"><time>2026-05-03T01:54:35Z</time></trkpt>
<trkpt lat="50.443518" lon="3.730322"><time>2026-05-03T02:04:35Z</time></trkpt>
<trkpt lat="50.442462" lon="3.731874"><time>2026-05-03T02:14:35Z</time></trkpt>
<trkpt lat="50.444293" lon="3.732725"><time>2026-05-03T02:24:35Z</time></trkpt>
<trkpt lat="50.444835" lon="3.730829"><time>2026-05-03T02:34:35Z</time></trkpt>
<trkpt lat="50.445258" lon="3.731595"><time>2026-05-03T02:44:35Z</time></trkpt>
<trkpt lat="50.444844" lon="3.732889"><time>2026-05-03T02:54:35Z</time></trkpt>
<trkpt lat="50.445049" lon="3.733755"><time>2026-05-03T03:04:35Z</time></trkpt>
<trkpt lat="50.444024" lon="3.734370"><time>2026-05-03T03:14:35Z</time></trkpt>
<trkpt lat="50.444211" lon="3.735986"><time>2026-05-03T03:24:35Z</time></trkpt>
<trkpt lat="50.442817" lon="3.736458"><time>2026-05-03T03:34:35Z</time></trkpt>
<trkpt lat="50.442302" lon="3.738468"><time>2026-05-03T03:44:35Z</time></trkpt>
<trkpt lat="50.443145" lon="3.738855"><time>2026-05-03T03:54:35Z</time></trkpt>
<trkpt lat="50.442302" lon="3.739863"><time>2026-05-03T04:04:35Z</time></trkpt>
<trkpt lat="50.442393" lon="3.740357"><time>2026-05-03T04:14:35Z</time></trkpt>
<trkpt lat="50.442935" lon="3.740578"><time>2026-05-03T04:24:35Z</time></trkpt>
<trkpt lat="50.443514" lon="3.742515"><time>2026-05-03T04:34:35Z</time></trkpt>
<trkpt lat="50.445345" lon="3.746501"><time>2026-05-03T04:44:35Z</time></trkpt>
<trkpt lat="50.445586" lon="3.748804"><time>2026-05-03T04:54:35Z</time></trkpt>
<trkpt lat="50.445245" lon="3.750599"><time>2026-05-03T05:04:35Z</time></trkpt>
<trkpt lat="50.445649" lon="3.751677"><time>2026-05-03T05:14:35Z</time></trkpt>
<trkpt lat="50.445630" lon="3.752807"><time>2026-05-03T05:24:35Z</time></trkpt>
<trkpt lat="50.444879" lon="3.753980"><time>2026-05-03T05:34:35Z</time></trkpt>
<trkpt lat="50.445002" lon="3.754624"><time>2026-05-03T05:44:35Z</time></trkpt>
</trkseg>
</trk>
<trk>
<name>hhstl48</name>
<cmt>q</cmt>
<desc>Thulin Sentier n°48 </desc>
<link href="https://chemins.be/thulin/sentier/48"/><trkseg>
<trkpt lat="50.442853" lon="3.725865"><time>2026-05-03T01:14:35Z</time></trkpt>
<trkpt lat="50.441760" lon="3.722940"><time>2026-05-03T01:24:35Z</time></trkpt>
<trkpt lat="50.436385" lon="3.719128"><time>2026-05-03T01:34:35Z</time></trkpt>
<trkpt lat="50.434845" lon="3.719228"><time>2026-05-03T01:44:35Z</time></trkpt>
</trkseg></trk>
<trk>
<name>hhstl48</name>
<cmt>v</cmt>
<desc>Thulin Sentier n°48 </desc>
<link href="https://chemins.be/thulin/sentier/48"/><trkseg>
<trkpt lat="50.434845" lon="3.719228"><time>2026-05-03T01:44:35Z</time></trkpt>
<trkpt lat="50.433821" lon="3.718804"><time>2026-05-03T01:54:35Z</time></trkpt>
</trkseg></trk>
<trk>
<name>hhstl48</name>
<cmt>q</cmt>
<desc>Thulin Sentier n°48 </desc>
<link href="https://chemins.be/thulin/sentier/48"/><trkseg>
<trkpt lat="50.433821" lon="3.718804"><time>2026-05-03T01:54:35Z</time></trkpt>
<trkpt lat="50.431630" lon="3.717956"><time>2026-05-03T02:04:35Z</time></trkpt>
</trkseg>
</trk>
<trk>
<name>hhstli1</name>
<cmt>v</cmt>
<desc>Thulin Chemin n°i1 </desc>
<link href="https://chemins.be/thulin/chemin/i1"/><trkseg>
<trkpt lat="50.422216" lon="3.736630"><time>2026-05-03T01:14:35Z</time></trkpt>
<trkpt lat="50.421583" lon="3.736702"><time>2026-05-03T01:24:35Z</time></trkpt>
<trkpt lat="50.417462" lon="3.717799"><time>2026-05-03T01:34:35Z</time></trkpt>
</trkseg>
</trk>
<trk>
<name>hhstli2</name>
<cmt>v</cmt>
<desc>Thulin Chemin n°i2 </desc>
<link href="https://chemins.be/thulin/chemin/i2"/><trkseg>
<trkpt lat="50.423877" lon="3.749111"><time>2026-05-03T01:14:35Z</time></trkpt>
<trkpt lat="50.424515" lon="3.751426"><time>2026-05-03T01:24:35Z</time></trkpt>
<trkpt lat="50.426189" lon="3.759021"><time>2026-05-03T01:34:35Z</time></trkpt>
<trkpt lat="50.427146" lon="3.763270"><time>2026-05-03T01:44:35Z</time></trkpt>
</trkseg>
</trk>
<trk>
<name>hhstli3</name>
<cmt>v</cmt>
<desc>Thulin Chemin n°i3 </desc>
<link href="https://chemins.be/thulin/chemin/i3"/><trkseg>
<trkpt lat="50.422889" lon="3.744202"><time>2026-05-03T01:14:35Z</time></trkpt>
<trkpt lat="50.422830" lon="3.743501"><time>2026-05-03T01:24:35Z</time></trkpt>
<trkpt lat="50.422146" lon="3.740454"><time>2026-05-03T01:34:35Z</time></trkpt>
</trkseg>
</trk>
</gpx>